CXA385 EHEH-EHRD

Flight info

Callsign CXA385
Flight time 0h 31m
Altitude 2500
Route EHEH INK EHRD
Aircraft C172/L-SG/L

Departure

Time 2026-04-29 18:19
Airport Eindhoven Airport (EHEH)

Arrival

Time 2026-04-29 18:51
Airport Rotterdam The Hague Airport (EHRD)
Time Latitude Longitude Altitude Speed Heading
2026-04-29 18:07 51.45775 5.37760 78 ft 0 kts 229°
2026-04-29 18:09 51.45768 5.37741 76 ft 7 kts 239°
2026-04-29 18:10 51.45737 5.37670 78 ft 8 kts 230°
2026-04-29 18:10 51.45704 5.37597 78 ft 9 kts 232°
2026-04-29 18:10 51.45669 5.37517 78 ft 9 kts 235°
2026-04-29 18:10 51.45635 5.37418 72 ft 12 kts 242°
2026-04-29 18:11 51.45596 5.37296 78 ft 6 kts 241°
2026-04-29 18:11 51.45591 5.37280 78 ft 0 kts 244°
2026-04-29 18:11 51.45572 5.37219 71 ft 12 kts 243°
2026-04-29 18:11 51.45525 5.37072 76 ft 17 kts 243°
2026-04-29 18:12 51.45459 5.36894 74 ft 19 kts 222°
2026-04-29 18:12 51.45352 5.36794 76 ft 17 kts 201°
2026-04-29 18:12 51.45244 5.36814 78 ft 13 kts 169°
2026-04-29 18:12 51.45144 5.36846 78 ft 15 kts 165°
2026-04-29 18:13 51.45034 5.36881 78 ft 18 kts 170°
2026-04-29 18:13 51.44925 5.36913 78 ft 7 kts 158°
2026-04-29 18:13 51.44917 5.36922 73 ft 0 kts 120°
2026-04-29 18:15 51.44916 5.36922 73 ft 0 kts 116°
2026-04-29 18:15 51.44875 5.36943 76 ft 14 kts 169°
2026-04-29 18:16 51.44796 5.36995 76 ft 10 kts 140°
2026-04-29 18:16 51.44787 5.37008 74 ft 0 kts 124°
2026-04-29 18:18 51.44785 5.37013 75 ft 6 kts 127°
2026-04-29 18:18 51.44739 5.37127 76 ft 10 kts 74°
2026-04-29 18:18 51.44760 5.37168 77 ft 0 kts 41°
2026-04-29 18:18 51.44861 5.37301 86 ft 40 kts 37°
2026-04-29 18:19 51.45138 5.37569 172 ft 56 kts 37°
2026-04-29 18:19 51.45469 5.37944 349 ft 59 kts 41°
2026-04-29 18:19 51.45844 5.38373 494 ft 70 kts 40°
2026-04-29 18:19 51.46245 5.38845 723 ft 69 kts 50°
2026-04-29 18:20 51.46563 5.39402 958 ft 64 kts 60°
2026-04-29 18:20 51.47032 5.39772 883 ft 108 kts 359°
2026-04-29 18:20 51.47413 5.38664 902 ft 140 kts 256°
2026-04-29 18:20 51.46832 5.37594 996 ft 131 kts 211°
2026-04-29 18:21 51.46147 5.36678 1075 ft 131 kts 217°
2026-04-29 18:21 51.45965 5.35256 1016 ft 148 kts 296°
2026-04-29 18:21 51.46566 5.34201 1061 ft 106 kts 332°
2026-04-29 18:21 51.47123 5.33498 1088 ft 97 kts 336°
2026-04-29 18:22 51.47660 5.32829 1100 ft 100 kts 333°
2026-04-29 18:22 51.48194 5.32129 1119 ft 97 kts 334°
2026-04-29 18:22 51.48636 5.31346 1162 ft 99 kts 303°
2026-04-29 18:22 51.48823 5.30654 1148 ft 102 kts 302°
2026-04-29 18:23 51.49041 5.29581 1177 ft 102 kts 284°
2026-04-29 18:23 51.49213 5.28433 1135 ft 103 kts 301°
2026-04-29 18:23 51.49553 5.27513 1129 ft 97 kts 322°
2026-04-29 18:23 51.50052 5.26893 1180 ft 81 kts 351°
2026-04-29 18:24 51.50601 5.26583 1143 ft 84 kts
2026-04-29 18:24 51.51186 5.26446 1158 ft 84 kts 11°
2026-04-29 18:24 51.51769 5.26446 1181 ft 85 kts 14°
2026-04-29 18:24 51.52350 5.26527 1204 ft 82 kts 26°
2026-04-29 18:25 51.52924 5.26740 1236 ft 87 kts 25°
2026-04-29 18:25 51.53528 5.26984 1274 ft 91 kts 27°
2026-04-29 18:25 51.54144 5.27252 1299 ft 91 kts 31°
2026-04-29 18:25 51.54744 5.27616 1328 ft 93 kts 32°
2026-04-29 18:26 51.55349 5.28011 1358 ft 95 kts 32°
2026-04-29 18:26 51.55957 5.28411 1384 ft 96 kts 32°
2026-04-29 18:26 51.56596 5.28732 1410 ft 98 kts 19°
2026-04-29 18:26 51.57280 5.28782 1430 ft 103 kts 359°
2026-04-29 18:27 51.57918 5.28130 1450 ft 114 kts 326°
2026-04-29 18:27 51.58420 5.27114 1479 ft 118 kts 309°
2026-04-29 18:27 51.58868 5.26003 1502 ft 119 kts 310°
2026-04-29 18:27 51.59319 5.24882 1525 ft 120 kts 310°
2026-04-29 18:28 51.59777 5.23733 1528 ft 124 kts 310°
2026-04-29 18:28 51.60256 5.22572 1535 ft 126 kts 311°
2026-04-29 18:28 51.60751 5.21391 1540 ft 129 kts 310°
2026-04-29 18:28 51.61238 5.20166 1538 ft 130 kts 309°
2026-04-29 18:29 51.61732 5.18928 1539 ft 132 kts 309°
2026-04-29 18:29 51.62229 5.17683 1533 ft 133 kts 309°
2026-04-29 18:29 51.62721 5.16443 1534 ft 126 kts 309°
2026-04-29 18:29 51.63148 5.15314 1517 ft 111 kts 309°
2026-04-29 18:30 51.63520 5.14299 1521 ft 102 kts 312°
2026-04-29 18:30 51.63896 5.13312 1520 ft 104 kts 312°
2026-04-29 18:30 51.64277 5.12307 1522 ft 106 kts 312°
2026-04-29 18:30 51.64677 5.11299 1526 ft 106 kts 319°
2026-04-29 18:31 51.65121 5.10349 1525 ft 107 kts 318°
2026-04-29 18:31 51.65569 5.09391 1527 ft 107 kts 318°
2026-04-29 18:31 51.66020 5.08430 1528 ft 107 kts 318°
2026-04-29 18:31 51.66473 5.07469 1531 ft 108 kts 318°
2026-04-29 18:32 51.66930 5.06505 1534 ft 108 kts 320°
2026-04-29 18:32 51.67910 5.04660 1537 ft 110 kts 322°
2026-04-29 18:32 51.68411 5.03720 1536 ft 111 kts 322°
2026-04-29 18:33 51.68915 5.02774 1541 ft 111 kts 322°
2026-04-29 18:33 51.69414 5.01832 1539 ft 112 kts 322°
2026-04-29 18:33 51.69931 5.00859 1536 ft 113 kts 322°
2026-04-29 18:33 51.70458 4.99875 1541 ft 118 kts 322°
2026-04-29 18:34 51.71008 4.98863 1540 ft 122 kts 322°
2026-04-29 18:34 51.71379 4.98178 1537 ft 123 kts 322°
2026-04-29 18:34 51.72131 4.96780 1534 ft 122 kts 322°
2026-04-29 18:34 51.72666 4.95769 1540 ft 118 kts 322°
2026-04-29 18:35 51.73192 4.94764 1529 ft 116 kts 322°
2026-04-29 18:35 51.73709 4.93771 1529 ft 114 kts 322°
2026-04-29 18:35 51.74218 4.92793 1524 ft 113 kts 322°
2026-04-29 18:35 51.74720 4.91825 1521 ft 112 kts 322°
2026-04-29 18:36 51.75185 4.90822 1522 ft 111 kts 316°
2026-04-29 18:36 51.75626 4.89815 1521 ft 109 kts 317°
2026-04-29 18:36 51.76056 4.88824 1524 ft 107 kts 317°
2026-04-29 18:36 51.76476 4.87841 1521 ft 106 kts 317°
2026-04-29 18:37 51.76891 4.86868 1523 ft 105 kts 316°
2026-04-29 18:37 51.77301 4.85900 1524 ft 104 kts 316°
2026-04-29 18:37 51.77706 4.84941 1526 ft 103 kts 316°
2026-04-29 18:37 51.78110 4.83986 1528 ft 103 kts 316°
2026-04-29 18:38 51.78516 4.83038 1525 ft 103 kts 316°
2026-04-29 18:38 51.78925 4.82092 1528 ft 103 kts 316°
2026-04-29 18:38 51.79333 4.81156 1526 ft 103 kts 316°
2026-04-29 18:38 51.79747 4.80210 1525 ft 103 kts 316°
2026-04-29 18:39 51.80160 4.79261 1525 ft 103 kts 316°
2026-04-29 18:39 51.80570 4.78322 1525 ft 102 kts 316°
2026-04-29 18:39 51.80999 4.77429 1540 ft 99 kts 321°
2026-04-29 18:39 51.81433 4.76571 1538 ft 98 kts 321°
2026-04-29 18:40 51.81874 4.75711 1535 ft 100 kts 321°
2026-04-29 18:40 51.82317 4.74851 1535 ft 99 kts 321°
2026-04-29 18:40 51.82674 4.73901 1534 ft 100 kts 308°
2026-04-29 18:40 51.82940 4.72814 1544 ft 114 kts 289°
2026-04-29 18:41 51.83504 4.68206 1555 ft 145 kts 283°
2026-04-29 18:41 51.83668 4.66656 1554 ft 135 kts 283°
2026-04-29 18:42 51.83873 4.65214 1545 ft 129 kts 291°
2026-04-29 18:42 51.84119 4.63839 1542 ft 126 kts 291°
2026-04-29 18:42 51.84343 4.62493 1541 ft 122 kts 291°
2026-04-29 18:42 51.84600 4.61222 1543 ft 116 kts 297°
2026-04-29 18:43 51.84854 4.60020 1542 ft 110 kts 296°
2026-04-29 18:43 51.85169 4.58996 1542 ft 95 kts 325°
2026-04-29 18:43 51.85584 4.58165 1516 ft 94 kts 321°
2026-04-29 18:43 51.85992 4.57339 1483 ft 97 kts 321°
2026-04-29 18:44 51.86517 4.56619 1372 ft 106 kts 342°
2026-04-29 18:44 51.87221 4.56027 1272 ft 121 kts 347°
2026-04-29 18:44 51.87991 4.55497 1168 ft 119 kts 356°
2026-04-29 18:44 51.88772 4.55203 1145 ft 108 kts
2026-04-29 18:45 51.89484 4.54949 1281 ft 106 kts
2026-04-29 18:45 51.90214 4.54523 1405 ft 114 kts 356°
2026-04-29 18:45 51.90956 4.54050 1495 ft 113 kts 351°
2026-04-29 18:45 51.91689 4.53746 1492 ft 107 kts
2026-04-29 18:46 51.92416 4.53488 1496 ft 107 kts
2026-04-29 18:46 51.93131 4.53271 1492 ft 103 kts
2026-04-29 18:46 51.93845 4.53132 1490 ft 108 kts 354°
2026-04-29 18:46 51.94339 4.52137 1488 ft 128 kts 277°
2026-04-29 18:47 51.94182 4.50735 1497 ft 127 kts 256°
2026-04-29 18:47 51.94042 4.49307 1490 ft 129 kts 259°
2026-04-29 18:47 51.93911 4.47858 1497 ft 130 kts 259°
2026-04-29 18:47 51.93757 4.46402 1475 ft 131 kts 261°
2026-04-29 18:48 51.93640 4.44914 1324 ft 137 kts 282°
2026-04-29 18:48 51.94230 4.43965 1129 ft 121 kts 355°
2026-04-29 18:48 51.95061 4.43566 861 ft 122 kts 356°
2026-04-29 18:48 51.95832 4.43237 560 ft 105 kts 353°
2026-04-29 18:49 51.96474 4.42856 457 ft 94 kts 326°
2026-04-29 18:49 51.96545 4.41875 425 ft 92 kts 244°
2026-04-29 18:49 51.96204 4.40911 431 ft 106 kts 235°
2026-04-29 18:49 51.95811 4.39788 532 ft 118 kts 232°
2026-04-29 18:50 51.95272 4.39214 776 ft 82 kts 167°
2026-04-29 18:50 51.94878 4.39782 646 ft 87 kts 108°
2026-04-29 18:50 51.94657 4.40765 484 ft 96 kts 88°
2026-04-29 18:50 51.94835 4.41838 310 ft 88 kts 66°
2026-04-29 18:51 51.95113 4.42576 125 ft 66 kts 58°
2026-04-29 18:51 51.95338 4.43143 15 ft 58 kts 57°
2026-04-29 18:51 51.95528 4.43633 -6 ft 40 kts 58°
2026-04-29 18:51 51.95665 4.43966 -5 ft 39 kts 56°
2026-04-29 18:52 51.95830 4.44383 -6 ft 44 kts 57°
2026-04-29 18:52 51.95912 4.44634 -6 ft 11 kts 93°
2026-04-29 18:52 51.95879 4.44708 -5 ft 6 kts 150°
2026-04-29 18:52 51.95876 4.44711 -5 ft 0 kts 141°
2026-04-29 18:53 51.95856 4.44732 -5 ft 10 kts 155°
2026-04-29 18:53 51.95796 4.44755 -5 ft 10 kts 210°
2026-04-29 18:53 51.95727 4.44611 -4 ft 21 kts 236°
2026-04-29 18:54 51.95634 4.44378 -4 ft 26 kts 236°
2026-04-29 18:54 51.95534 4.44128 -4 ft 27 kts 237°
2026-04-29 18:54 51.95426 4.43859 -5 ft 28 kts 236°
2026-04-29 18:54 51.95326 4.43606 -5 ft 21 kts 236°
2026-04-29 18:55 51.95261 4.43446 -5 ft 19 kts 237°
2026-04-29 18:55 51.95187 4.43260 -4 ft 20 kts 237°
2026-04-29 18:55 51.95122 4.43066 -4 ft 19 kts 243°
2026-04-29 18:55 51.95058 4.42917 -5 ft 14 kts 237°
2026-04-29 18:56 51.95020 4.42825 -4 ft 9 kts 242°
2026-04-29 18:56 51.95021 4.42796 -4 ft 0 kts 342°
2026-04-29 18:56 51.95024 4.42794 -4 ft 0 kts 327°